Вернуться в каталог

SL-14 DEB

АктивенPO
NORAD 45277·DEBRIS·🇷🇺 Russia

Запущен Aug 15, 1991 с Plesetsk Cosmodrome

Loading…

Ближайшие Пролёты (ближайшие 24 часа)

TLE

СвежийSource: Space-Track

Эпоха: Sep 14, 2026, 09:38 UTC

1 45277U 91056P   26257.40196259  .00003457  00000-0  61107-2 0  9990
2 45277  82.5520  43.2720 0083323 334.4358  25.2667 13.40990067319028

Отслеживайте SL-14 DEB в реальном времени с AllMySat

Download on the App Store